sat.trackr.live / text

‹ back to catalog

VIGORIDE-3

NORAD 52760 · 2022-057AE

PAYLOAD ACTIVE UNKNOWN

§ Identity

Operator
Country
US
Launch date
2022-05-25
Launch site
AFETR
Launch vehicle
Mass (kg)
RCS (m²)

External: N2YO · Heavens-Above · Gunter

§ Orbital elements

Epoch: 2026-09-20T21:51:23.717088Z

Period
94.23 min
Inclination
97.6741°
Eccentricity
0.0008981
Mean motion
15.28136778 rev/d
Perigee alt
475.2 km
Apogee alt
487.5 km
Semi-major
6,859.5 km
B*
1.4209e-4
RAAN
46.5656°
Arg perigee
140.5319°
Mean anomaly
219.6576°
Rev number
23,977

§ Raw data

VIGORIDE-31 52760U 22057AE  26263.91069117  .00003821  00000+0  14209-3 0  99912 52760  97.6741  46.5656 0008981 140.5319 219.6576 15.28136778239779

JSON: /api/v1/satellites/52760 · /tle

For live sub-satellite position, see the globe view (requires WebGL).

§ Visibility from observer

Set your observer location to see the next 7 days of passes ≥ 10°. The values pass through the URL so the page stays shareable.

No JS? Fill the form by hand. The geolocation button needs JavaScript.